sat.trackr.live / text

‹ back to catalog

STARLINK-3133

NORAD 49416 · 2021-104J

PAYLOAD ACTIVE UNKNOWN

§ Identity

Operator
Country
US
Launch date
2021-11-13
Launch site
AFETR
Launch vehicle
Mass (kg)
RCS (m²)

Purposes: comms

External: N2YO · Heavens-Above · Gunter

§ Orbital elements

Epoch: 2026-05-25T00:24:12.256128Z

Period
95.44 min
Inclination
53.2161°
Eccentricity
0.0001396
Mean motion
15.08841104 rev/d
Perigee alt
538.8 km
Apogee alt
540.7 km
Semi-major
6,917.9 km
B*
-1.2757e-5
RAAN
246.4757°
Arg perigee
73.8719°
Mean anomaly
286.2427°
Rev number
25,015

§ Raw data

STARLINK-31331 49416U 21104J   26145.01680852 -.00000491  00000+0 -12757-4 0  99912 49416  53.2161 246.4757 0001396  73.8719 286.2427 15.08841104250159

JSON: /api/v1/satellites/49416 · /tle

For live sub-satellite position, see the globe view (requires WebGL).

§ Visibility from observer

Set your observer location to see the next 7 days of passes ≥ 10°. The values pass through the URL so the page stays shareable.

No JS? Fill the form by hand. The geolocation button needs JavaScript.